Regional Weather Roundup
Issued by NWS

Home | Current Version | Previous Version | Text Only | Print | Product List | Glossary Off
Versions: 1 2 3 4 5 6 7 8 9 10 11 12 13 14 15 16 17 18 19 20 21 22 23 24 25 26 27 28 29 30 31 32 33 34 35 36 37 38 39 40 41 42 43 44 45 46 47 48 49 50

000
ASUS43 KDMX 282106
RWRIA

WEATHER ROUNDUP FOR IOWA
NATIONAL WEATHER SERVICE DES MOINES IA
400 PM CDT WED JUN 28 2017

NOTE: "FAIR" INDICATES FEW OR NO CLOUDS BELOW 12,000 FEET WITH NO
SIGNIFICANT WEATHER AND/OR OBSTRUCTIONS TO VISIBILITY.

* - THESE STATIONS ARE NOT NWS STATIONS...THUS NOT UNDER NWS
QUALITY CONTROL.  THEY ALSO DO NOT REPORT WEATHER SUCH
AS PRECIPITATION OR FOG.

IAZ001>003-012>014-020>022-031>034-043>046-282200-
   NORTHWEST IOWA

CITY           SKY/WX    TMP DP  RH WIND       PRES   REMARKS
CARROLL *      PTSUNNY   84  73  70 SW10G20   29.65S HX  91
CHEROKEE *     MOSUNNY   85  64  48 W12       29.62S HX  87
DENISON *      MOSUNNY   86  68  54 W17G25    29.66S HX  89
LE MARS *      SUNNY     86  63  45 W13G18    29.64S HX  87
ORANGE CITY *  SUNNY     84  64  51 NW14      29.64S HX  86
SHELDON *      SUNNY     84  64  51 W12G18    29.62S HX  86
SIOUX CITY     SUNNY     88  64  44 W12G20    29.63R HX  89
SPENCER        MOSUNNY   85  65  51 W13       29.62S HX  86
STORM LAKE *   SUNNY     84  66  54 W16G22    29.65R HX  86
$$

IAZ055>058-069>071-079>083-090>094-282200-
   SOUTHWEST IOWA

CITY           SKY/WX    TMP DP  RH WIND       PRES   REMARKS
ATLANTIC *     MOSUNNY   84  72  65 SW16G25   29.66F HX  89
AUDUBON *      MOSUNNY   84  75  74 SW13G18   29.67F HX  92
CLARINDA *     PTSUNNY   82  75  78 S9        29.68F HX  89
COUNCIL BLFS * MOSUNNY   88  73  62 SW12      29.66F HX  96
CRESTON *      CLOUDY    84  72  65 S18       29.71F HX  89
HARLAN  *      MOSUNNY   86  73  66 SW14G21   29.69S HX  93
LAMONI         PTSUNNY   85  71  63 S17G29    29.73F HX  90
RED OAK *      CLOUDY    82  73  74 SW8       29.67F HX  88
SHENANDOAH *   PTSUNNY   81  75  83 E16       29.63F HX  86
$$

IAZ047>049-059>061-072>074-084-282200-
   CENTRAL IOWA

CITY           SKY/WX    TMP DP  RH WIND       PRES   REMARKS
AMES           CLOUDY    82  73  74 S17G29    29.66S HX  87
ANKENY *       PTSUNNY   84  70  61 S13G25    29.68F HX  88
BOONE *        CLOUDY    81  72  74 SW13G20   29.66R HX  84
CHARITON *     PTSUNNY   84  72  65 S18G25    29.72F HX  89
DES MOINES     PTSUNNY   84  70  62 S18G26    29.68F HX  88
GRINNELL*      PTSUNNY   82  69  63 S21G26    29.72F HX  86
KNOXVILLE *    MOSUNNY   84  70  61 S16G24    29.70F HX  88
MARSHALLTOWN   PTSUNNY   83  70  64 S24G35    29.65F HX  87
NEWTON *       PTSUNNY   82  70  65 SW17G26   29.70F HX  86
PELLA *        SUNNY     86  70  58 S13G23    29.72F HX  90
PERRY *          N/A     82  73  76 S13G23    29.66F HX  87
$$

IAZ004>006-015-016-023>025-035-036-282200-
   NORTH CENTRAL IOWA

CITY           SKY/WX    TMP DP  RH WIND       PRES   REMARKS
ALGONA *       CLOUDY    82  70  65 SW13G20   29.62F HX  86
CLARION *      FOG       73  72  94 SW12G28   29.65R VSB 1
ESTHERVILLE    MOSUNNY   82  68  62 W14       29.61S HX  85
FORT DODGE *   CLOUDY    72  64  78 SW7       29.66S THUNDER
MASON CITY     CLOUDY    79  71  76 SW13      29.63F HX  82
FOREST CITY *    N/A     81  63  54 SW16G23   29.62F HX  82
WEBSTER CITY * PTSUNNY   79  70  73 S15G22    29.62S HAZE    HX  81
IOWA FALLS *   PTSUNNY   79  70  73 S22       29.65R HX  82
$$

IAZ007>011-017>019-026>030-037>042-050>054-066-282200-
   NORTHEAST IOWA

CITY           SKY/WX    TMP DP  RH WIND       PRES   REMARKS
CEDAR RAPIDS   CLOUDY    80  71  74 SW16G24   29.71F HX  84
CHARLES CITY * CLOUDY    66  66 100 SW18G28   29.65F FOG
CLINTON *      CLOUDY    77  69  76 SW15G24   29.79R
DECORAH *      CLOUDY    70  66  88 S10G21    29.62F
DUBUQUE        MOSUNNY   79  70  74 S21G26    29.73F HX  82
MONTICELLO *   MOSUNNY   81  72  74 S16       29.71F HX  84
OELWEIN *      CLOUDY    81  72  74 S21G28    29.65F HX  84
WATERLOO       CLOUDY    80  68  66 S26G35    29.61F HX  83
$$

IAZ064-065-067-068-078-282200-
   EAST CENTRAL IOWA

CITY           SKY/WX    TMP DP  RH WIND       PRES   REMARKS
IOWA CITY      MOSUNNY   86  70  58 S20G30    29.73F HX  90
MT. PLEASANT * PTSUNNY   83  67  58 S18G29    29.77F HX  85
MUSCATINE *    CLOUDY    84  70  61 S15G22    29.76S HX  88
QUAD CITIES    CLOUDY    81  69  67 S9G23     29.76F HX  84
$$

IAZ062-063-075>077-085>089-095>099-282200-
   SOUTHEAST IOWA

CITY           SKY/WX    TMP DP  RH WIND       PRES   REMARKS
BURLINGTON     PTSUNNY   82  70  66 S21G29    29.79S HX  86
FAIRFIELD *    CLOUDY    84  68  58 S23G29    29.75S HX  87
FORT MADISON * SUNNY     84  70  61 S16G24    29.81S HX  88
KEOKUK *       MOSUNNY   82  70  65 SW13G22   29.80R HX  86
OSKALOOSA *    PTSUNNY   83  69  63 S17G25    29.73F HX  86
CENTERVILLE *    N/A     84  72  65 S21G28    29.77F HX  89
OTTUMWA        MOSUNNY   86  70  58 S20G29    29.74F HX  90
WASHINGTON *   CLOUDY    84  70  61 SW20G29   29.76S HX  88
$$

ABBREVIATIONS USED IN REMARKS
   TC - TEMPERATURES IN CELSIUS
  WCI - WIND CHILL INDEX
   HX - HEAT INDEX
  VSB - VISIBILITY
$$





USA.gov is the U.S. government's official web portal to all federal, state and local government web resources and services.